User: anonymous   Login
Location: Unspecified
(0.0000°N, 0.0000°E)
Time: 06:49:38
(UTC+00:00)
Language:

deb r/b Ablestar - Orbit

View from above orbital plane
View from above orbital plane
View from above satellite
View from above satellite

Ground track
Ground track

The orbit data is extracted from the following two-line orbital elements,

1 00335U 61015DM  16336.54464170  .00000327  00000-0  20237-3 0  9993
2 00335  66.8431  22.1883 0045774 229.6594 130.0497 14.16647419833493
Epoch (UTC): 01 December 2016 13:04:17
Eccentricity: 0.0045774
inclination: 66.8431°
perigee height: 803 km
apogee height: 870 km
right ascension of ascending node: 22.1883°
argument of perigee: 229.6594°
revolutions per day: 14.16647419
mean anomaly at epoch: 130.0497°
orbit number at epoch: 83349

The dashed part of the orbit path shows where the satellite is in the earth's shadow,  

DLR